DW9227 Weather Reports


Display with metric or nautical units.
time (UTC)temp
F
wind
direction
speed
MPH
gust
MPH
rain 1hr
in
rain 24hr
in
rain mn
in
humidity
%
barometer
mb
20260508144522 63 77 0.0 1.0 0.00 0.16 0.16 72 1016.2
20260508143020 63 77 0.0 1.0 0.00 0.16 0.16 74 1016.3
20260508141519 63 76 0.0 1.0 0.00 0.16 0.16 76 1016.5
20260508140018 62 76 0.0 3.0 0.00 0.16 0.16 76 1016.7
20260508134518 63 69 0.0 2.0 0.00 0.16 0.16 76 1016.8
20260508133024 63 80 0.0 4.0 0.00 0.16 0.16 75 1016.9
20260508131518 62 80 0.0 1.0 0.00 0.16 0.16 76 1016.9
20260508130014 62 80 0.0 0.0 0.00 0.16 0.16 78 1016.9
20260508124514 62 79 0.0 0.0 0.00 0.16 0.16 78 1016.9
20260508123014 62 79 0.0 2.0 0.00 0.16 0.16 78 1017.1
20260508121514 62 78 0.0 1.0 0.00 0.16 0.16 78 1017.0
20260508120012 62 83 0.0 4.0 0.00 0.16 0.16 79 1017.2
20260508114510 62 107 0.0 5.0 0.00 0.16 0.16 79 1017.2
20260508113010 62 77 0.0 3.0 0.00 0.16 0.16 78 1017.2
20260508111513 62 75 0.0 6.0 0.00 0.16 0.16 79 1017.2
20260508110008 62 116 0.0 3.0 0.00 0.16 0.16 79 1017.2
20260508104510 61 124 0.0 4.0 0.00 0.16 0.16 78 1017.3
20260508103006 61 126 0.0 3.0 0.00 0.16 0.16 79 1017.3
20260508101506 61 128 0.0 0.0 0.00 0.16 0.16 79 1017.4
20260508100012 61 128 0.0 0.0 0.00 0.16 0.16 80 1017.3
20260508094502 61 128 0.0 1.0 0.00 0.16 0.16 82 1017.3
20260508093104 60 128 0.0 2.0 0.00 0.16 0.16 83 1017.3
20260508091614 59 128 0.0 4.0 0.00 0.16 0.16 84 1017.2
20260508090108 59 128 0.0 1.0 0.00 0.16 0.16 86 1017.1
20260508084553 58 128 0.0 0.0 0.00 0.16 0.16 86 1017.1
20260508083106 58 128 0.0 0.0 0.00 0.16 0.16 88 1017.1
20260508081557 57 128 0.0 0.0 0.00 0.16 0.16 87 1017.1
20260508080052 57 128 0.0 0.0 0.00 0.16 0.16 92 1017.1
20260508074548 57 128 0.0 0.0 0.00 0.16 0.16 93 1017.1
20260508073047 57 128 0.0 0.0 0.00 0.16 0.16 93 1017.1
20260508071554 56 128 0.0 0.0 0.00 0.16 0.16 93 1017.0
20260508070134 56 128 0.0 0.0 0.00 0.16 0.16 94 1017.0
20260508064547 56 128 0.0 0.0 0.02 0.16 0.16 93 1016.9
20260508063043 55 128 0.0 0.0 0.06 0.16 0.16 93 1016.9
20260508061548 54 128 0.0 0.0 0.09 0.16 0.16 92 1016.9
20260508060040 54 128 0.0 0.0 0.11 0.16 0.16 91 1016.8
20260508054543 54 128 0.0 0.0 0.13 0.14 0.14 90 1016.7
20260508053038 54 128 0.0 0.0 0.10 0.10 0.10 89 1016.7
20260508051535 54 128 0.0 0.0 0.06 0.06 0.06 87 1016.6
20260508050036 55 128 0.0 0.0 0.05 0.05 0.05 83 1016.4
20260508044529 56 128 0.0 0.0 0.02 0.02 0.02 81 1015.8
20260508043048 56 128 0.0 0.0 0.00 0.00 0.00 79 1015.5
20260508041527 55 128 0.0 0.0 0.00 0.00 0.00 80 1015.4
20260508040029 55 128 0.0 0.0 0.00 0.00 0.00 80 1015.3
20260508034526 55 128 0.0 0.0 0.00 0.00 0.00 80 1015.3
20260508033025 55 128 0.0 0.0 0.00 0.00 0.00 81 1015.3
20260508031525 55 128 0.0 0.0 0.00 0.00 0.00 81 1015.2
20260508030038 55 128 0.0 0.0 0.00 0.00 0.00 81 1015.4
20260508024527 55 128 0.0 0.0 0.00 0.00 0.00 81 1015.3
20260508023022 55 128 0.0 0.0 0.00 0.00 0.00 80 1015.1
20260508021520 55 128 0.0 0.0 0.00 0.00 0.00 80 1015.1
20260508020018 55 128 0.0 0.0 0.00 0.00 0.00 79 1015.1
20260508014517 56 128 0.0 0.0 0.00 0.00 0.00 79 1015.1
20260508013016 56 128 0.0 0.0 0.00 0.00 0.00 78 1015.0
20260508011515 56 128 0.0 0.0 0.00 0.00 0.00 79 1015.1
20260508010022 56 128 0.0 0.0 0.00 0.00 0.00 79 1015.0
20260508004514 56 128 0.0 0.0 0.00 0.00 0.00 80 1015.2
20260508003012 56 128 0.0 0.0 0.00 0.00 0.00 80 1015.3
20260508001512 56 128 0.0 0.0 0.00 0.00 0.00 80 1015.4
20260508000011 56 128 0.0 0.0 0.00 0.00 0.00 80 1015.5
20260507234511 56 128 0.0 0.0 0.00 0.00 0.00 80 1015.5
20260507233009 56 128 0.0 0.0 0.00 0.00 0.00 80 1015.5
20260507231515 57 128 0.0 0.0 0.00 0.00 0.00 79 1015.4
20260507230005 57 128 0.0 0.0 0.00 0.00 0.00 79 1015.3
20260507224504 57 128 0.0 0.0 0.00 0.00 0.00 78 1015.3
20260507223002 58 128 0.0 0.0 0.00 0.00 0.00 77 1015.3
20260507221603 57 128 0.0 0.0 0.00 0.00 0.00 78 1015.3
20260507220059 57 128 0.0 0.0 0.00 0.00 0.00 78 1015.3
20260507214557 58 128 0.0 0.0 0.00 0.00 0.00 77 1015.2
20260507213105 58 128 0.0 0.0 0.00 0.00 0.00 75 1015.0
20260507211559 59 128 0.0 0.0 0.00 0.00 0.00 74 1014.9
20260507210054 59 128 0.0 0.0 0.00 0.00 0.00 73 1014.9
20260507204600 60 128 0.0 0.0 0.00 0.00 0.00 72 1014.8
20260507203055 60 128 0.0 0.0 0.00 0.00 0.00 70 1014.6
20260507201602 60 128 0.0 0.0 0.00 0.00 0.00 70 1014.6
20260507200055 60 128 0.0 0.0 0.00 0.00 0.00 71 1014.6
20260507194559 61 128 0.0 0.0 0.00 0.00 0.00 70 1014.4
20260507193051 61 128 0.0 0.0 0.00 0.00 0.00 68 1014.0
20260507191610 62 128 0.0 0.0 0.00 0.00 0.00 66 1013.6
20260507190050 63 128 0.0 0.0 0.00 0.00 0.00 63 1013.4
20260507184557 64 128 0.0 0.0 0.00 0.00 0.00 62 1013.2
20260507183049 64 128 0.0 0.0 0.00 0.00 0.00 60 1013.1
20260507181548 65 128 0.0 0.0 0.00 0.00 0.00 59 1012.9
20260507180048 66 128 0.0 0.0 0.00 0.00 0.00 57 1012.8
20260507174547 66 129 0.0 8.0 0.00 0.00 0.00 58 1012.6
20260507173046 67 113 0.0 4.0 0.00 0.00 0.00 56 1012.5
20260507171550 67 84 0.0 6.0 0.00 0.00 0.00 55 1012.5
20260507170047 68 76 0.0 9.0 0.00 0.00 0.00 55 1012.4
20260507164557 68 136 0.0 6.0 0.00 0.00 0.00 55 1012.2
20260507163043 68 157 0.0 8.0 0.00 0.00 0.00 55 1012.1
20260507161547 68 136 1.0 9.0 0.00 0.00 0.00 55 1012.0
20260507160047 68 150 1.0 8.0 0.00 0.00 0.00 55 1012.0
20260507154541 69 97 1.0 9.0 0.00 0.00 0.00 55 1012.1
20260507153040 69 137 2.0 9.0 0.00 0.00 0.00 55 1012.0
20260507151540 69 128 1.0 13.0 0.00 0.00 0.00 56 1012.1
20260507150039 69 129 2.0 9.0 0.00 0.00 0.00 55 1012.2